Dewpoint
50 50 49 49 50 50 49 49 50 50 50 50 50 51 52 52 51 51 51 51 51 51 51 52 55 53 51 43 35 33 48 54 52 45 32 25 29 39 40 47 48 46 51 48 46 49 49
50 49 49 49 49 49 50 50 49 50 50 51 51 52 52 52 51 51 51 51 51 50 51 54 56 52 48 34 38 36 46 53 46 37 30 26 31 37 42 44 46 45 49 48 49 47 49
49 49 49 49 49 50 50 50 50 51 51 51 52 52 51 51 51 51 51 50 50 49 50 55 55 52 45 31 34 35 41 45 38 32 25 26 32 31 41 44 47 45 42 49 49 47 46
49 49 49 49 50 51 51 51 51 52 52 52 51 51 51 51 50 50 50 49 49 49 51 56 55 52 45 40 40 37 36 41 33 31 26 26 32 30 30 40 43 43 41 39 47 47 46
48 49 49 49 50 51 52 52 52 51 51 51 51 50 50 50 50 49 49 49 49 51 53 54 53 51 41 39 38 38 37 36 36 33 30 28 29 28 27 33 35 38 38 36 35 39 40
48 48 49 49 50 52 51 51 51 51 51 51 50 50 50 49 49 48 48 47 44 51 55 52 51 46 42 28 34 36 35 28 32 31 34 30 30 26 27 30 31 35 36 34 33 35 39
48 49 50 50 50 51 51 51 51 51 51 51 50 50 49 49 49 47 46 38 20 29 27 17 19 30 22 35 33 35 33 31 20 30 34 35 31 27 27 29 30 36 37 33 33 34 35
49 50 50 50 51 51 51 51 51 51 51 50 50 49 48 48 48 45 45 19 16 18 14 16 18 19 20 22 25 30 34 29 18 27 32 34 32 31 30 29 29 31 33 34 32 30 33
49 50 51 51 51 51 51 51 51 51 50 49 49 49 48 48 46 39 32 17 16 16 14 15 15 15 18 16 18 24 29 29 17 24 29 33 34 35 34 29 27 29 30 31 31 28 25
50 51 51 51 51 51 51 51 51 51 50 49 49 48 48 47 32 34 27 19 16 16 16 12 9 13 14 15 14 21 27 27 24 21 29 34 35 35 34 31 29 27 30 31 30 29 24
50 50 51 51 51 51 51 51 50 50 49 49 48 48 47 47 41 35 30 16 16 17 4 6 18 21 17 12 7 10 23 25 24 21 29 32 35 35 33 32 31 29 29 28 29 28 25
49 50 50 50 51 51 51 51 50 50 49 48 48 47 47 40 39 36 26 18 17 13 7 7 18 15 14 14 19 10 17 24 23 22 24 30 37 35 34 32 31 30 29 23 27 25 20
49 50 50 51 51 51 51 51 50 50 49 48 47 46 46 42 33 30 30 19 11 7 14 15 15 12 12 19 23 23 12 21 21 18 19 27 28 35 31 30 28 27 23 17 13 16 15
50 51 51 51 51 51 51 51 51 50 49 48 47 47 43 40 37 34 21 19 12 11 15 17 14 11 14 19 22 25 26 15 26 18 24 24 22 27 32 26 21 22 18 11 9 11 11
50 50 51 51 51 51 51 51 51 50 49 47 47 41 37 36 38 27 18 16 10 14 13 10 9 8 13 16 22 26 29 28 22 21 20 23 22 26 28 27 22 17 14 12 11 15 12
50 51 51 51 51 51 51 51 51 50 49 47 44 39 37 35 24 20 19 16 12 11 13 14 12 12 11 19 24 26 28 32 37 34 29 18 17 25 26 29 23 18 15 12 10 10 10
50 50 51 51 51 51 51 51 51 50 49 47 40 36 25 22 21 19 16 12 10 10 17 14 14 13 10 25 27 24 28 33 37 35 33 31 18 15 22 26 26 15 16 13 13 13 12
50 50 50 50 50 51 51 51 51 50 49 42 38 33 33 27 18 16 12 12 12 13 23 21 22 10 15 16 22 23 29 35 37 35 30 32 29 16 17 22 23 19 15 15 12 13 14
50 50 50 50 50 50 51 51 51 50 49 45 38 36 33 30 19 19 19 17 15 25 25 21 21 18 14 26 27 31 31 32 36 33 29 36 29 20 16 17 19 18 15 16 17 19 16
49 49 49 49 50 50 50 50 50 50 49 46 39 32 33 31 28 26 23 19 20 22 24 22 18 16 21 24 25 29 29 29 33 31 35 35 30 28 21 17 19 18 18 15 18 15 15
48 48 48 49 50 50 50 50 50 50 49 45 35 33 36 31 31 31 29 24 22 23 24 19 16 21 20 21 17 26 26 26 26 30 32 30 26 30 30 26 25 23 18 17 16 18 17
48 48 49 49 49 50 50 50 50 49 49 43 36 36 38 36 35 29 28 27 24 24 22 19 18 20 20 19 23 23 23 23 25 29 27 26 26 30 31 29 26 25 19 18 16 17 19
48 48 48 48 49 49 49 49 50 49 48 39 42 39 38 36 33 29 28 28 28 27 26 23 19 17 20 22 25 23 19 18 21 21 24 25 24 28 29 30 30 27 27 18 18 18 18
48 48 48 48 48 49 49 49 48 49 49 46 44 42 36 31 33 30 29 29 32 31 29 28 24 28 27 31 29 23 19 19 17 18 26 25 22 27 30 30 27 30 31 30 19 21 18
48 48 48 48 48 48 48 48 49 50 49 48 48 43 36 31 35 33 31 32 35 33 33 29 26 30 31 28 24 16 19 21 20 19 24 24 22 24 28 28 30 30 31 31 25 39 44
48 49 49 49 48 47 47 49 50 50 50 50 49 46 40 33 33 36 35 34 33 35 33 33 32 30 31 27 25 19 22 23 25 16 25 22 21 23 25 29 28 31 33 37 35 40 43
49 49 49 49 48 48 49 49 50 50 50 50 48 47 42 35 38 39 37 37 39 36 35 33 35 32 38 33 26 23 24 24 23 26 21 19 21 21 22 26 36 33 35 42 35 40 41
49 49 49 49 48 49 49 50 50 50 51 50 48 49 44 38 39 40 40 40 39 38 35 36 34 33 32 30 32 32 31 28 27 28 29 23 22 22 22 26 32 34 31 37 38 35 37
49 49 49 49 49 50 50 50 50 50 51 51 47 50 49 42 40 44 43 43 43 42 40 38 36 35 32 31 29 27 25 28 24 30 31 28 31 30 29 32 33 38 35 32 34 34 33
Wind_Speed
23 23 24 25 25 25 26 27 27 27 28 29 30 30 31 31 32 32 30 29 27 26 23 19 12 6 4 6 17 10 2 12 28 26 26 24 25 24 28 24 26 24 19 23 24 8 1
23 23 24 25 25 26 26 27 27 28 28 29 30 31 32 33 34 34 32 29 26 23 23 15 8 3 4 16 12 23 5 18 25 30 26 24 16 19 17 27 26 22 26 24 8 26 17
23 24 25 25 25 26 26 26 27 28 29 30 30 31 32 34 36 37 36 32 27 24 21 13 6 9 11 27 8 9 22 17 24 29 26 27 27 22 25 20 28 26 18 21 18 36 16
22 23 24 24 25 25 26 27 28 28 29 30 32 34 34 35 38 38 38 36 33 26 18 12 7 10 13 14 29 31 22 19 22 26 25 21 26 24 25 16 24 26 26 21 35 33 26
21 22 23 24 25 26 28 29 29 30 31 32 33 35 37 37 39 39 40 40 35 14 6 3 8 7 16 17 11 21 18 24 25 20 25 24 25 27 25 25 24 21 22 22 20 26 18
20 21 23 24 25 25 26 27 28 29 30 31 33 34 38 39 39 40 37 37 22 2 5 10 8 6 12 7 10 14 19 19 25 21 22 24 17 29 27 23 31 17 19 18 22 23 21
20 21 22 24 25 25 26 29 31 32 34 34 35 36 39 41 40 42 21 12 19 4 12 17 25 28 57 27 30 21 23 22 22 25 27 28 22 35 32 28 19 17 25 23 21 19 17
21 21 22 23 23 24 26 28 30 31 31 32 33 33 36 40 42 42 12 20 19 18 33 27 38 40 40 35 22 23 25 24 28 31 27 23 38 28 22 24 27 26 30 30 21 26 26
20 21 21 22 23 26 27 27 28 29 30 29 31 34 35 37 44 16 25 21 21 20 14 26 21 21 28 19 29 43 20 33 25 33 36 37 20 27 26 28 32 33 30 30 23 25 25
20 20 22 23 25 26 27 27 28 30 32 33 35 37 37 38 11 19 14 22 21 18 8 13 4 9 1 16 16 38 32 29 26 33 31 36 31 35 35 33 31 33 27 27 29 24 19
20 21 22 23 25 26 27 28 30 32 34 35 36 36 35 26 10 8 17 23 22 16 8 15 22 15 52 14 6 20 36 29 37 30 31 37 34 41 39 36 30 26 24 30 31 26 22
20 21 22 23 24 26 27 29 30 33 36 37 38 37 33 14 7 17 23 25 19 4 6 10 28 35 44 37 31 22 18 29 21 31 31 35 21 30 35 28 26 24 22 22 26 24 29
20 21 22 23 23 25 27 29 30 33 37 40 41 39 29 7 7 15 22 16 6 4 24 18 37 36 41 32 29 34 22 28 31 37 40 27 41 32 24 29 31 27 24 21 24 30 26
20 20 21 22 23 24 26 29 31 33 37 41 46 44 10 13 15 20 15 16 11 9 21 26 26 31 23 34 35 45 30 27 30 31 18 30 30 43 29 31 27 35 32 14 21 23 23
19 20 21 22 23 24 25 27 31 34 38 42 43 10 10 14 19 14 13 12 11 8 13 19 24 22 26 28 21 31 32 18 25 35 37 29 38 20 39 23 29 31 38 22 14 13 12
19 20 21 23 23 24 25 25 28 34 37 45 24 9 9 9 10 9 11 19 12 18 17 20 23 22 24 19 20 26 20 15 33 32 22 33 20 31 29 34 33 30 23 27 23 24 24
20 20 20 21 22 24 25 25 26 30 35 41 12 12 6 6 10 12 15 12 18 18 17 15 23 20 20 9 16 20 12 37 33 34 41 26 30 42 26 39 42 24 25 29 17 17 17
19 20 20 20 21 23 24 24 25 28 31 19 9 9 13 18 14 9 12 16 17 17 19 16 18 15 13 17 9 19 15 14 31 32 32 23 11 32 39 25 37 26 28 31 26 29 18
19 20 21 20 20 21 23 23 23 25 24 13 14 7 8 20 9 14 18 19 19 13 14 16 9 17 20 7 8 10 10 14 19 33 24 22 8 20 32 23 25 45 36 29 21 12 28
20 21 22 22 21 20 21 21 22 22 25 13 7 8 9 15 17 20 19 19 18 12 9 13 11 19 15 14 8 10 18 14 22 31 39 29 17 20 22 27 16 38 34 32 24 29 30
21 22 23 23 22 21 20 19 19 20 22 9 5 5 10 10 14 23 24 20 16 16 11 8 15 15 18 16 14 9 17 23 24 27 23 18 12 20 22 21 19 24 37 32 37 23 32
21 22 23 23 22 20 20 18 16 17 21 5 4 3 4 14 18 20 18 16 22 22 19 15 17 12 19 21 4 18 21 13 9 24 25 25 12 25 11 17 20 25 37 33 31 29 21
21 22 23 24 22 21 20 19 16 14 9 4 3 1 0 6 12 17 15 19 22 21 13 19 18 21 15 18 20 23 18 19 17 19 26 23 16 19 5 9 9 7 22 35 30 30 26
22 23 24 25 24 23 21 19 16 14 9 7 4 2 3 8 9 17 26 26 20 23 20 22 21 9 15 22 30 22 20 20 19 20 6 29 27 9 8 7 5 8 8 18 28 19 31
23 24 25 26 25 24 22 20 17 15 14 10 5 5 5 6 8 20 18 21 20 21 20 23 15 10 17 15 24 16 11 14 18 19 15 24 19 8 7 3 3 7 17 16 7 16 34
25 25 25 26 26 24 23 20 18 16 15 10 11 8 5 3 8 10 22 18 21 11 12 17 20 18 17 8 6 5 4 6 8 7 19 22 18 9 8 5 3 18 37 37 12 20 29
26 26 26 26 26 25 22 20 19 17 15 9 6 11 4 5 7 7 4 8 7 11 9 15 18 7 11 7 4 5 5 7 6 11 15 11 6 8 8 6 8 26 35 18 9 7 19
27 27 26 25 25 24 22 20 18 16 14 8 5 14 9 6 10 12 10 11 7 9 8 15 13 9 7 12 7 5 5 6 5 6 13 2 7 3 1 5 5 36 28 23 11 17 19
27 27 25 24 24 22 21 19 17 15 13 8 5 10 14 4 5 5 13 16 16 19 16 5 8 16 3 7 9 6 10 5 16 10 18 9 4 5 9 5 17 13 18 18 18 17 20
Wind_Direction
22 19 16 13 10 6 3 359 356 352 348 344 340 336 333 330 328 325 321 320 319 318 313 311 307 278 253 219 244 275 14 177 180 185 201 209 227 215 216 224 234 229 192 193 248 223 197
19 16 14 10 6 2 359 356 353 348 345 342 338 335 333 330 327 324 322 320 316 314 308 304 292 213 216 248 250 226 154 148 168 185 201 208 225 223 225 231 236 245 196 210 233 304 164
17 14 11 8 3 358 354 352 349 346 343 339 336 334 332 330 327 324 322 319 312 305 296 288 268 210 248 239 235 257 182 179 177 188 200 212 225 234 226 241 240 253 247 203 215 229 243
16 13 9 4 359 354 351 349 347 344 342 339 338 336 335 332 328 326 322 319 310 301 283 280 230 207 253 253 240 262 267 181 193 193 213 216 229 246 256 249 257 248 256 229 219 227 240
14 10 6 3 358 353 351 348 346 345 343 341 340 336 333 331 328 325 324 321 313 300 232 158 155 216 266 304 219 245 217 193 184 205 204 224 226 235 246 235 250 250 246 245 246 232 214
11 8 4 2 357 352 349 346 345 343 341 340 339 336 333 330 327 322 325 319 305 111 201 182 248 283 260 257 226 214 224 235 181 200 193 214 224 230 232 225 223 226 240 244 243 247 209
8 5 3 360 355 352 350 348 346 343 342 341 339 337 334 331 327 318 336 333 1 316 331 279 263 263 290 278 324 194 201 223 207 201 199 210 217 223 215 225 234 232 242 235 239 231 235
3 2 1 357 353 350 349 347 341 338 337 338 336 336 335 331 324 315 322 7 354 305 304 266 251 251 252 263 282 280 193 202 214 204 200 205 225 222 214 218 234 234 238 244 230 243 221
359 358 356 354 352 350 346 341 338 337 336 336 337 338 337 336 321 327 328 357 329 328 297 301 251 252 243 235 236 253 234 203 212 209 203 206 221 218 218 216 219 233 233 242 245 242 239
354 355 355 353 351 345 341 341 341 340 340 341 340 339 336 344 334 333 325 332 330 320 301 284 238 313 318 226 256 230 242 207 221 218 211 219 223 199 224 220 218 225 229 246 252 256 258
352 354 352 349 345 343 343 344 343 341 340 339 337 333 333 330 282 302 298 328 318 308 323 333 4 338 341 175 278 213 224 234 212 215 210 216 200 223 209 222 217 228 216 234 247 258 268
352 350 348 346 343 344 343 342 344 342 338 336 332 328 332 333 282 259 308 315 307 260 269 313 3 347 340 333 314 284 211 223 211 223 230 231 215 219 226 213 225 223 229 237 240 251 258
346 344 343 342 341 343 342 342 343 341 337 332 327 324 319 281 252 298 297 310 313 237 353 333 343 341 326 343 326 349 266 224 208 211 229 221 228 217 222 219 207 222 210 226 224 230 237
342 341 340 338 341 342 341 341 341 341 335 332 327 317 279 237 246 270 307 305 277 317 332 323 333 321 334 356 337 336 330 226 227 215 210 223 220 220 210 220 202 210 213 203 212 212 233
339 337 337 336 338 339 340 341 339 339 336 332 327 317 288 288 232 268 307 305 322 325 317 332 318 312 339 333 337 338 327 315 245 209 226 217 240 200 228 211 215 204 216 219 251 224 205
334 334 335 334 335 336 338 341 342 338 337 329 326 299 287 262 290 283 285 283 324 344 343 340 321 323 318 350 344 341 312 0 354 355 303 247 276 218 218 231 226 220 187 211 223 219 222
329 330 332 331 333 334 337 340 341 340 337 329 317 321 100 334 318 287 267 312 343 340 352 309 318 319 322 27 334 330 291 315 0 340 336 317 240 251 235 209 218 205 197 205 219 229 222
326 326 328 329 330 332 332 336 339 340 344 351 323 317 326 354 318 333 348 343 333 357 0 337 327 320 335 324 327 312 297 307 334 325 325 307 300 235 242 229 214 219 213 199 208 220 235
322 322 323 324 328 329 328 332 336 341 349 329 315 282 348 5 352 343 339 334 336 25 345 332 315 328 325 41 348 327 303 315 324 313 333 321 317 238 241 253 251 213 204 214 198 202 233
319 320 320 321 325 326 326 329 331 337 335 341 297 313 350 326 0 347 331 318 329 331 319 300 291 303 342 344 339 267 294 307 315 308 319 317 250 250 245 230 230 210 202 205 202 207 229
317 316 316 317 321 322 321 325 329 330 329 325 336 333 9 304 324 315 302 317 322 311 286 323 304 354 335 325 316 333 332 328 323 305 317 314 273 274 268 264 265 243 201 199 208 207 212
314 316 314 315 317 318 316 320 323 326 328 241 311 355 341 288 288 302 314 321 318 335 331 329 322 317 313 299 13 304 304 317 312 311 318 314 285 330 288 255 263 271 201 194 206 214 233
313 312 312 313 314 313 313 313 316 319 332 306 42 99 174 281 302 300 297 309 325 333 325 318 317 315 316 305 313 296 273 275 258 277 297 300 327 331 301 268 280 217 244 196 205 204 215
309 309 310 311 314 312 312 313 315 309 290 267 266 164 188 267 284 294 303 307 312 321 321 310 297 341 290 295 297 284 287 277 260 256 259 284 302 298 294 46 172 251 290 306 200 205 211
307 309 310 312 313 312 313 314 311 297 287 266 258 186 175 260 262 295 303 320 315 319 313 316 349 289 288 292 301 301 290 252 236 228 210 260 276 296 322 311 312 241 357 345 249 60 9
307 309 309 312 313 314 315 312 304 298 288 279 257 171 172 253 247 280 313 299 299 319 320 317 339 348 6 333 320 290 300 317 343 181 198 250 262 275 350 307 184 359 341 326 314 61 5
308 309 308 312 313 315 312 308 305 301 292 276 269 176 163 225 266 267 262 319 314 300 294 300 346 347 58 333 296 353 287 323 335 329 190 214 303 275 278 292 4 344 346 13 82 53 15
308 307 311 314 314 312 311 308 305 297 290 281 261 184 197 218 266 267 284 302 308 282 301 326 335 3 358 8 14 332 357 339 332 41 5 183 197 237 320 4 13 356 16 62 76 43 35
309 312 316 315 315 314 313 313 307 301 290 283 255 195 208 216 264 328 280 269 262 258 278 299 295 304 322 352 356 339 309 341 329 12 348 25 84 299 336 76 65 1 340 7 36 40 24